リニア彗星

C/2002 X1 ( LINEAR )

English version
Home page
Updated on May 23, 2004

---------------------------------------------------------------------

・ プロフィール

発見日 2002年12月5日
発見光度 18.0等
発見者 Lincoln Laboratory Near-Earth Asteroid Research project

・ 写真集

・ 軌道要素

Epoch 2003 July 20.0 TT = JDT 2452840.5
T 2003 July 12.89169 TT                                 MPC
q   2.4867516            (2000.0)            P               Q
z  +0.0007636      Peri.  207.32521     +0.24899312     +0.93060977
 +/-0.0000109      Node   281.88677     +0.93111109     -0.15378756
e   0.9981012      Incl.  164.08881     +0.26652310     -0.33213679
>From 620 observations 2002 Feb. 21-2003 Feb. 13, mean residual 0".62.

・ 星図

・ 光度変化

        m1 = 7.5 + 5 logΔ + 12.5 log r  [   ,-140]  (              〜2003年 2月22日)
        m1 = 8.5 + 5 logΔ + 12.5 log r  [-140,   ]  (2003年 2月22日〜              )

---------------------------------------------------------------------

軌道要素はM.P.E.C. 2003-C69に掲載されたものです。
星図は StellaNavigator Ver.2.0 for Windows (アストロアーツ 編著 / アスキー出版局刊) で作成したものです。
光度グラフはComet for Windowsで作成したものです。

---------------------------------------------------------------------

Copyright(C) Seiichi Yoshida (comet@aerith.net). All rights reserved.